Вернуться в каталог

STARLINK-1216

АктивенСвязьVLEO
NORAD 45185·PAYLOAD·🇺🇸 United States

Запущен Feb 17, 2020 с Cape Canaveral Space Force Station

Loading…

Ближайшие Пролёты (ближайшие 24 часа)

TLE

СвежийSource: CelesTrak SupGP

Эпоха: Sep 15, 2026, 01:07 UTC

1 45185C 20012H   26258.04701389 -.00006534  00000+0 -13594-3 0  2585
2 45185  53.1534 230.9670 0002898  48.6807 130.5824 15.45040523    16

Отслеживайте STARLINK-1216 в реальном времени с AllMySat

Download on the App Store